STARLINK-32320, 61638

Orbit data source: Space-Track

STARLINK-32320, 61638 is a payload satellite owned by SpaceX/Seattle (US) in LEO that was launched on Wed, 23 Oct 2024 UTC via an FALCON 9 launch vehicle from the Air Force Eastern Test Range (AFETR). Payload-class satellites include a variety of spacecraft equipped with specific instruments for various scientific and technological missions. These include communications satellites like Starlink; space stations such as the ISS; scientific satellites like the Hubble; Earth observation satellites from companies like Planet Labs, Umbra, and HawkEye 360; GPS; miniature CubeSats for education and research; and military/defense satellites.

Loading next visibility...
Identifier
61638, 2024-191T
Orbit
LEO
Country
Flag of USUS
Related business
Manufacturer
SpaceX/Seattle
Mission
Operational Commercial Communications
Bus & Motor
STARLINK V2M, Unknown motor
Mass
730 kg wet, ~700 kg dry
Launch date (UTC)
2024-10-23 (1 year ago)
Launch vehicle
FALCON 9
Launch site
Air Force Eastern Test Range (AFETR)
Object type
Payload
Rocket body
Debris
Shape & HBR
Box + 2 Pan, 17.7 m
Radar Cross Section
33.884 m², Large (>1 m²)

Expand to show TLE details & history
Last TLE update: 1 day ago

TLE from 1 day ago
0 STARLINK-32320
1 61638U 24191T   25310.58139737 -.00000534  00000-0 -98722-5 0  9992
2 61638  43.0009 133.6392 0001044 214.9684 145.1099 15.27588745 58668
Epoch: 2025-11-06T13:57Z
TLE epoch observation values (Epoch: 2025-11-06T13:57:12.732Z)
Latitude
-0.00004°
Longitude
-121.70156°
Altitude
483.386 km
Speed
7.625 km/s
True Right ascension
08h 54m 33s
True Declination
0° 00' 00"
Sunlit
Object was in daylight at epoch
Visualization orbit readout
Latitude
Unknown
Longitude
Unknown
Altitude
Unknown
Speed
Unknown
Apparent Right ascension
Unknown
Apparent Declination
Unknown
Sunlit
N/A
Visualization observer readout
Local Sidereal Time
14:15:10
Azimuth
Unknown
Elevation
Unknown
Doppler factor
Unknown
Orbital elements
Apogee altitude
485.684 km
Perigee altitude
484.251 km
Semi-major axis
6,863.105 km
Eccentricity
0.0001
Inclination
43.0009°
RAAN
133.6392°
Arg. of periapsis
214.9684°
True anomaly
145.11674°
Mean anomaly
145.1099°
Eccentric anomaly
145.11332°
Mean motion
3.81735 °/min
Orbital period
94.31 mins
BSTAR
-0.0000098722
Loading maneuver chart data...
Computing Atmospheric mass density...
Loading historical data...
Loading historical data...
Loading historical data...
Loading historical data...
Loading historical data...
Loading historical data...
Loading historical data...

Documentation

Showing up to 5 results
|